ETD123 OMAA-EDDF

Flight info

Callsign ETD123
Flight time N/A
Altitude 36000
Route DAXIB Q563 UKUVO G462 TUMAK L602 GADSI M860 NINVA UM860 EBEDI/N0473F380 UM860 ODALI UL852 NEGEM T746 ARGES DCT DEGET DCT BEGLA DCT DITIS DCT RAPET T170 VAGAB/N0399F240 T170 GAPLA T178 KERAX KERAX5D
Aircraft B77W/H-SDE1E2E3FGHIJ2J3J4J5M1RWXY/LB1D1

Departure

Time 2026-05-01 12:54
Airport Zayed International Airport (OMAA)

Arrival

Time N/A
Airport Frankfurt Main Airport (EDDF)
Time Latitude Longitude Altitude Speed Heading
2026-05-01 12:18 24.44593 54.64301 85 ft 0 kts 68°
2026-05-01 12:39 24.44592 54.64301 81 ft 1 kts 68°
2026-05-01 12:39 24.44584 54.64276 89 ft 4 kts 69°
2026-05-01 12:40 24.44575 54.64250 86 ft 2 kts 69°
2026-05-01 12:40 24.44568 54.64225 85 ft 4 kts 91°
2026-05-01 12:40 24.44575 54.64199 86 ft 4 kts 132°
2026-05-01 12:40 24.44596 54.64182 86 ft 4 kts 156°
2026-05-01 12:41 24.44620 54.64171 86 ft 3 kts 160°
2026-05-01 12:41 24.44645 54.64161 86 ft 4 kts 160°
2026-05-01 12:41 24.44652 54.64158 86 ft 0 kts 160°
2026-05-01 12:44 24.44600 54.64166 85 ft 9 kts 196°
2026-05-01 12:45 24.44476 54.64068 83 ft 13 kts 217°
2026-05-01 12:45 24.44431 54.64034 84 ft 11 kts 204°
2026-05-01 12:45 24.44388 54.64063 84 ft 8 kts 128°
2026-05-01 12:46 24.44364 54.64096 84 ft 9 kts 128°
2026-05-01 12:46 24.44235 54.64277 87 ft 13 kts 128°
2026-05-01 12:46 24.44179 54.64356 85 ft 13 kts 127°
2026-05-01 12:47 24.44123 54.64435 86 ft 13 kts 128°
2026-05-01 12:47 24.44062 54.64520 86 ft 15 kts 128°
2026-05-01 12:47 24.43996 54.64613 86 ft 16 kts 128°
2026-05-01 12:47 24.43925 54.64713 85 ft 16 kts 128°
2026-05-01 12:48 24.43855 54.64812 84 ft 16 kts 128°
2026-05-01 12:48 24.43832 54.64844 83 ft 16 kts 128°
2026-05-01 12:49 24.43455 54.65374 85 ft 20 kts 128°
2026-05-01 12:49 24.43371 54.65492 84 ft 20 kts 128°
2026-05-01 12:49 24.43286 54.65611 85 ft 20 kts 128°
2026-05-01 12:50 24.43202 54.65729 85 ft 20 kts 128°
2026-05-01 12:50 24.43118 54.65848 85 ft 20 kts 128°
2026-05-01 12:50 24.43034 54.65967 85 ft 20 kts 128°
2026-05-01 12:50 24.42950 54.66085 85 ft 20 kts 128°
2026-05-01 12:51 24.42867 54.66202 85 ft 20 kts 128°
2026-05-01 12:51 24.42782 54.66320 87 ft 20 kts 128°
2026-05-01 12:51 24.42620 54.66554 86 ft 19 kts 128°
2026-05-01 12:52 24.42539 54.66666 86 ft 19 kts 129°
2026-05-01 12:52 24.42406 54.66848 84 ft 13 kts 135°
2026-05-01 12:52 24.42326 54.66836 84 ft 13 kts 216°
2026-05-01 12:53 24.42195 54.66713 84 ft 10 kts 246°
2026-05-01 12:53 24.42228 54.66637 83 ft 17 kts 307°
2026-05-01 12:53 24.42396 54.66400 86 ft 72 kts 308°
2026-05-01 12:54 24.42846 54.65768 86 ft 136 kts 308°
2026-05-01 12:54 24.44245 54.63789 751 ft 169 kts 309°
2026-05-01 12:54 24.44986 54.62740 1184 ft 178 kts 311°
2026-05-01 12:55 24.46577 54.60541 1963 ft 199 kts 314°
2026-05-01 12:55 24.47621 54.59418 2168 ft 223 kts 319°
2026-05-01 12:55 24.48817 54.58227 2416 ft 245 kts 320°
2026-05-01 12:56 24.50118 54.56939 2973 ft 257 kts 319°
2026-05-01 12:56 24.51464 54.55595 3699 ft 263 kts 319°
2026-05-01 12:56 24.52816 54.54241 4571 ft 263 kts 318°
2026-05-01 12:56 24.54163 54.52886 5403 ft 262 kts 318°
2026-05-01 12:57 24.55511 54.51526 6179 ft 265 kts 317°
2026-05-01 12:57 24.58247 54.48756 7638 ft 270 kts 316°
2026-05-01 12:57 24.59629 54.47352 8336 ft 273 kts 315°
2026-05-01 12:58 24.61029 54.45929 9093 ft 275 kts 315°
2026-05-01 12:58 24.62442 54.44491 9825 ft 277 kts 314°
2026-05-01 12:58 24.63870 54.43036 10422 ft 285 kts 314°
2026-05-01 12:59 24.67019 54.39817 10809 ft 333 kts 315°
2026-05-01 12:59 24.68756 54.38043 11078 ft 353 kts 315°
2026-05-01 12:59 24.71840 54.34900 12178 ft 367 kts 315°
2026-05-01 13:00 24.76245 54.30409 14132 ft 376 kts 314°
2026-05-01 13:00 24.78175 54.28436 14819 ft 382 kts 314°
2026-05-01 13:01 24.82121 54.24401 16265 ft 392 kts 313°
2026-05-01 13:01 24.84130 54.22345 17001 ft 396 kts 313°
2026-05-01 13:01 24.88214 54.18163 18391 ft 406 kts 313°
2026-05-01 13:02 24.90297 54.16029 19023 ft 410 kts 313°
2026-05-01 13:07 25.34665 53.65668 30057 ft 470 kts 314°
2026-05-01 13:07 25.37171 53.63342 30350 ft 471 kts 314°
2026-05-01 13:07 25.39683 53.61011 30754 ft 470 kts 314°
2026-05-01 13:08 25.42181 53.58693 31207 ft 468 kts 314°
2026-05-01 13:08 25.44667 53.56386 31650 ft 466 kts 313°
2026-05-01 13:08 25.47146 53.54084 32038 ft 465 kts 313°
2026-05-01 13:08 25.49630 53.51775 32419 ft 465 kts 313°
2026-05-01 13:09 25.52100 53.49478 32838 ft 463 kts 313°
2026-05-01 13:09 25.54561 53.47189 33263 ft 461 kts 312°
2026-05-01 13:09 25.56985 53.44931 33656 ft 460 kts 312°
2026-05-01 13:09 25.59431 53.42652 34010 ft 460 kts 312°
2026-05-01 13:10 25.61878 53.40367 34285 ft 459 kts 311°
2026-05-01 13:10 25.64289 53.38054 34562 ft 458 kts 311°
2026-05-01 13:10 25.66682 53.35716 34845 ft 458 kts 311°
2026-05-01 13:10 25.69061 53.33381 35129 ft 458 kts 311°
2026-05-01 13:11 25.71452 53.31039 35426 ft 457 kts 310°
2026-05-01 13:11 25.73840 53.28707 35708 ft 457 kts 311°
2026-05-01 13:11 25.76240 53.26365 35753 ft 462 kts 311°
2026-05-01 13:12 25.81028 53.21623 35813 ft 456 kts 307°
2026-05-01 13:12 25.83087 53.18996 35824 ft 445 kts 300°
2026-05-01 13:12 25.84862 53.16209 35838 ft 441 kts 296°
2026-05-01 13:13 25.87679 53.10239 35845 ft 435 kts 288°
2026-05-01 13:13 25.90116 53.04118 35830 ft 436 kts 288°
2026-05-01 13:14 25.92590 52.97947 35829 ft 438 kts 288°
2026-05-01 13:14 25.95092 52.91758 35834 ft 438 kts 288°
2026-05-01 13:15 25.97594 52.85574 35835 ft 438 kts 288°
2026-05-01 13:15 26.00089 52.79395 35835 ft 438 kts 288°
2026-05-01 13:16 26.02596 52.73223 35856 ft 438 kts 289°
2026-05-01 13:16 26.05341 52.67154 35840 ft 439 kts 290°
2026-05-01 13:17 26.10836 52.55067 35842 ft 436 kts 290°
2026-05-01 13:18 26.14902 52.46072 35838 ft 435 kts 290°
2026-05-01 13:18 26.17186 52.41035 35863 ft 435 kts 290°
2026-05-01 13:19 26.19910 52.35012 35850 ft 435 kts 290°
2026-05-01 13:20 26.23927 52.25993 35846 ft 435 kts 289°
2026-05-01 13:20 26.26539 52.19922 35844 ft 435 kts 289°
2026-05-01 13:21 26.30474 52.10803 35846 ft 435 kts 289°
2026-05-01 13:21 26.33099 52.04713 35847 ft 436 kts 289°
2026-05-01 13:22 26.35704 51.98611 35847 ft 436 kts 289°
2026-05-01 13:22 26.38186 51.92460 35850 ft 431 kts 284°
2026-05-01 13:23 26.40243 51.86182 35853 ft 431 kts 284°
2026-05-01 13:23 26.42345 51.79906 35854 ft 432 kts 284°
2026-05-01 13:24 26.44469 51.73640 35881 ft 432 kts 284°
2026-05-01 13:25 26.47647 51.64251 35858 ft 432 kts 284°
2026-05-01 13:25 26.49753 51.57968 35856 ft 431 kts 284°
2026-05-01 13:26 26.51829 51.51694 35858 ft 431 kts 284°
2026-05-01 13:26 26.53905 51.45420 35858 ft 430 kts 284°
2026-05-01 13:27 26.55979 51.39154 35866 ft 430 kts 284°
2026-05-01 13:27 26.59085 51.29751 35871 ft 430 kts 284°
2026-05-01 13:28 26.62181 51.20387 35862 ft 430 kts 284°
2026-05-01 13:29 26.66309 51.07868 35863 ft 429 kts 283°
2026-05-01 13:31 26.72407 50.89056 35863 ft 428 kts 283°
2026-05-01 13:32 26.77409 50.73423 35878 ft 427 kts 283°
2026-05-01 13:33 26.84730 50.58688 35883 ft 445 kts 301°
2026-05-01 13:34 26.92592 50.48089 35881 ft 446 kts 303°
2026-05-01 13:35 26.99007 50.40494 35898 ft 448 kts 305°
2026-05-01 13:36 27.05409 50.32900 35885 ft 446 kts 304°
2026-05-01 13:36 27.11738 50.25266 35884 ft 444 kts 304°
2026-05-01 13:37 27.16033 50.20254 35886 ft 449 kts 308°
2026-05-01 13:37 27.20998 50.15869 35892 ft 457 kts 314°
2026-05-01 13:38 27.28706 50.09561 35889 ft 456 kts 314°
2026-05-01 13:39 27.33817 50.05318 35889 ft 455 kts 314°
2026-05-01 13:39 27.38854 50.01068 35890 ft 453 kts 312°
2026-05-01 13:40 27.43814 49.96695 35895 ft 453 kts 312°
2026-05-01 13:40 27.48771 49.92306 35893 ft 453 kts 312°
2026-05-01 13:41 27.53751 49.87915 35899 ft 454 kts 312°
2026-05-01 13:41 27.58695 49.83562 35892 ft 453 kts 312°
2026-05-01 13:42 27.63665 49.79182 35894 ft 453 kts 312°
2026-05-01 13:42 27.68624 49.74805 35906 ft 452 kts 312°
2026-05-01 13:43 27.73578 49.70426 35896 ft 452 kts 312°
2026-05-01 13:43 27.78522 49.66052 35895 ft 451 kts 312°
2026-05-01 13:44 27.83447 49.61659 35893 ft 451 kts 311°
2026-05-01 13:44 27.88362 49.57258 35902 ft 450 kts 311°
2026-05-01 13:45 27.93274 49.52857 35896 ft 450 kts 311°
2026-05-01 13:45 27.98185 49.48455 35895 ft 450 kts 311°
2026-05-01 13:46 28.03061 49.44078 35908 ft 450 kts 311°
2026-05-01 13:46 28.07942 49.39647 35901 ft 449 kts 311°
2026-05-01 13:47 28.12807 49.35204 35903 ft 449 kts 311°
2026-05-01 13:47 28.17670 49.30763 35900 ft 449 kts 311°
2026-05-01 13:48 28.22543 49.26312 35907 ft 449 kts 311°
2026-05-01 13:48 28.27402 49.21868 35893 ft 449 kts 311°
2026-05-01 13:49 28.32249 49.17397 35890 ft 448 kts 311°
2026-05-01 13:49 28.37094 49.12919 35909 ft 449 kts 311°
2026-05-01 13:50 28.42044 49.08661 35899 ft 455 kts 316°
2026-05-01 13:50 28.47314 49.04666 35891 ft 455 kts 316°
2026-05-01 13:51 28.52575 49.00677 35917 ft 454 kts 316°
2026-05-01 13:51 28.57823 48.96664 35899 ft 454 kts 316°
2026-05-01 13:52 28.63061 48.92644 35893 ft 454 kts 316°
2026-05-01 13:52 28.68290 48.88626 35888 ft 453 kts 316°
2026-05-01 13:53 28.73513 48.84606 35884 ft 453 kts 316°
2026-05-01 13:53 28.81350 48.78571 35886 ft 452 kts 316°
2026-05-01 13:54 28.86570 48.74566 35890 ft 452 kts 316°
2026-05-01 13:54 28.91762 48.70583 35901 ft 452 kts 316°
2026-05-01 13:55 28.96978 48.66576 35890 ft 452 kts 316°
2026-05-01 13:55 29.02196 48.62559 35884 ft 451 kts 316°
2026-05-01 13:56 29.07402 48.58546 35893 ft 451 kts 316°
2026-05-01 13:56 29.12602 48.54532 35896 ft 451 kts 316°
2026-05-01 13:57 29.16924 48.51192 35890 ft 451 kts 316°
2026-05-01 13:57 29.22981 48.46506 35907 ft 452 kts 316°
2026-05-01 13:58 29.28194 48.42467 35894 ft 452 kts 316°
2026-05-01 13:58 29.33395 48.38432 35892 ft 452 kts 316°
2026-05-01 13:59 29.38600 48.34390 35911 ft 451 kts 316°
2026-05-01 13:59 29.43821 48.30358 35895 ft 453 kts 318°
2026-05-01 14:00 29.49308 48.26686 35894 ft 457 kts 320°
2026-05-01 14:00 29.54842 48.23095 35921 ft 457 kts 320°
2026-05-01 14:01 29.60336 48.19504 35894 ft 457 kts 320°
2026-05-01 14:01 29.65847 48.15877 35888 ft 456 kts 320°
2026-05-01 14:02 29.71352 48.12243 35884 ft 456 kts 320°
2026-05-01 14:02 29.76850 48.08609 35893 ft 456 kts 320°
2026-05-01 14:03 29.82356 48.04967 35888 ft 456 kts 320°
2026-05-01 14:03 29.87860 48.01321 35882 ft 456 kts 320°
2026-05-01 14:04 29.93355 47.97677 35891 ft 456 kts 320°
2026-05-01 14:04 29.97924 47.94639 35886 ft 455 kts 319°
2026-05-01 14:05 30.01355 47.91882 35892 ft 444 kts 312°
2026-05-01 14:05 30.03691 47.89562 35871 ft 440 kts 308°
2026-05-01 14:05 30.07803 47.84454 35885 ft 433 kts 302°
2026-05-01 14:06 30.11697 47.79204 35889 ft 434 kts 302°
2026-05-01 14:06 30.15632 47.73911 35880 ft 434 kts 303°
2026-05-01 14:07 30.18917 47.69511 35884 ft 435 kts 303°
2026-05-01 14:08 30.24858 47.61558 35882 ft 436 kts 303°
2026-05-01 14:08 30.28820 47.56249 35883 ft 436 kts 303°
2026-05-01 14:09 30.32778 47.50937 35904 ft 435 kts 303°
2026-05-01 14:09 30.36727 47.45629 35887 ft 435 kts 303°
2026-05-01 14:10 30.40679 47.40310 35880 ft 435 kts 303°
2026-05-01 14:10 30.44620 47.34997 35882 ft 435 kts 303°
2026-05-01 14:11 30.48561 47.29677 35891 ft 435 kts 303°
2026-05-01 14:11 30.54476 47.21679 35885 ft 435 kts 303°
2026-05-01 14:12 30.58782 47.16674 35876 ft 445 kts 313°
2026-05-01 14:12 30.63633 47.12189 35884 ft 446 kts 313°
2026-05-01 14:13 30.68452 47.07732 35881 ft 445 kts 313°
2026-05-01 14:13 30.73283 47.03232 35882 ft 445 kts 313°
2026-05-01 14:14 30.78112 46.98714 35886 ft 446 kts 313°
2026-05-01 14:14 30.82941 46.94185 35873 ft 446 kts 313°
2026-05-01 14:15 30.87762 46.89660 35867 ft 445 kts 313°
2026-05-01 14:15 30.92580 46.85130 35880 ft 446 kts 313°
2026-05-01 14:16 30.97406 46.80588 35881 ft 446 kts 313°
2026-05-01 14:16 31.02233 46.76040 35878 ft 446 kts 313°
2026-05-01 14:17 31.07051 46.71492 35895 ft 446 kts 314°
2026-05-01 14:17 31.11886 46.66923 35886 ft 447 kts 314°
2026-05-01 14:18 31.16710 46.62358 35885 ft 447 kts 314°
2026-05-01 14:18 31.20725 46.58555 35900 ft 447 kts 314°
2026-05-01 14:19 31.26369 46.53200 35888 ft 447 kts 314°
2026-05-01 14:19 31.31195 46.48614 35883 ft 447 kts 314°
2026-05-01 14:20 31.38413 46.41744 35893 ft 447 kts 314°
2026-05-01 14:21 31.43241 46.37142 35885 ft 447 kts 314°
2026-05-01 14:21 31.48064 46.32538 35887 ft 447 kts 314°
2026-05-01 14:22 31.55296 46.25621 35893 ft 446 kts 314°
2026-05-01 14:22 31.60108 46.21011 35890 ft 446 kts 314°
2026-05-01 14:23 31.64915 46.16399 35907 ft 446 kts 314°
2026-05-01 14:23 31.69712 46.11790 35899 ft 446 kts 314°
2026-05-01 14:24 31.74485 46.07199 35891 ft 445 kts 314°
2026-05-01 14:24 31.79240 46.02543 35904 ft 444 kts 313°
2026-05-01 14:25 31.83949 45.97851 35896 ft 444 kts 313°
2026-05-01 14:25 31.88667 45.93145 35898 ft 444 kts 313°
2026-05-01 14:26 31.95728 45.86109 35893 ft 443 kts 313°
2026-05-01 14:27 32.00435 45.81415 35890 ft 443 kts 313°
2026-05-01 14:27 32.05131 45.76725 35912 ft 443 kts 313°
2026-05-01 14:28 32.12178 45.69675 35895 ft 442 kts 313°
2026-05-01 14:28 32.16865 45.64976 35913 ft 442 kts 313°
2026-05-01 14:29 32.21527 45.60297 35905 ft 443 kts 313°
2026-05-01 14:30 32.30910 45.50859 35901 ft 442 kts 312°
2026-05-01 14:31 32.37937 45.43773 35912 ft 443 kts 312°
2026-05-01 14:31 32.42627 45.39035 35908 ft 443 kts 312°
2026-05-01 14:32 32.47316 45.34291 35912 ft 443 kts 312°
2026-05-01 14:32 32.52006 45.29541 35903 ft 443 kts 312°
2026-05-01 14:33 32.56833 45.24948 35913 ft 449 kts 319°
2026-05-01 14:33 32.62056 45.20842 35923 ft 451 kts 319°
2026-05-01 14:34 32.67285 45.16747 35913 ft 450 kts 319°
2026-05-01 14:34 32.72504 45.12625 35940 ft 450 kts 319°
2026-05-01 14:35 32.77682 45.08511 35918 ft 451 kts 319°
2026-05-01 14:35 32.82923 45.04341 35913 ft 451 kts 319°
2026-05-01 14:36 32.88101 45.00215 35920 ft 451 kts 319°
2026-05-01 14:36 32.93317 44.96053 35922 ft 451 kts 319°
2026-05-01 14:37 32.98527 44.91891 35922 ft 451 kts 319°
2026-05-01 14:37 33.03744 44.87717 35928 ft 451 kts 319°
2026-05-01 14:38 33.08958 44.83538 35922 ft 451 kts 319°
2026-05-01 14:38 33.14171 44.79354 35948 ft 451 kts 319°
2026-05-01 14:39 33.19509 44.75348 35919 ft 461 kts 328°
2026-05-01 14:39 33.25761 44.73133 35937 ft 479 kts 344°
2026-05-01 14:40 33.32506 44.72770 35934 ft 488 kts 352°
2026-05-01 14:40 33.39253 44.72685 35939 ft 488 kts 352°
2026-05-01 14:41 33.46034 44.72548 35928 ft 488 kts 351°
2026-05-01 14:41 33.52819 44.72354 35927 ft 487 kts 351°
2026-05-01 14:42 33.59605 44.72140 35920 ft 488 kts 351°
2026-05-01 14:42 33.66395 44.71927 35912 ft 488 kts 351°
2026-05-01 14:43 33.73184 44.71717 35916 ft 488 kts 351°
2026-05-01 14:43 33.79972 44.71507 35922 ft 488 kts 351°
2026-05-01 14:44 33.86717 44.71299 35915 ft 488 kts 351°
2026-05-01 14:44 33.96889 44.70984 35922 ft 487 kts 351°
2026-05-01 14:45 34.07066 44.70668 35911 ft 487 kts 351°
2026-05-01 14:46 34.13846 44.70457 35933 ft 487 kts 351°
2026-05-01 14:46 34.24008 44.70140 35912 ft 487 kts 351°
2026-05-01 14:47 34.30793 44.69928 35913 ft 486 kts 351°
2026-05-01 14:48 34.40938 44.69610 35911 ft 486 kts 351°
2026-05-01 14:48 34.50966 44.68634 35932 ft 475 kts 341°
2026-05-01 14:49 34.63177 44.63424 35922 ft 464 kts 331°
2026-05-01 14:50 34.75190 44.57549 35920 ft 466 kts 332°
2026-05-01 14:51 34.84236 44.53174 35909 ft 466 kts 332°
2026-05-01 14:52 34.93230 44.48813 35914 ft 465 kts 332°
2026-05-01 14:53 35.02249 44.44428 35921 ft 466 kts 332°
2026-05-01 14:53 35.08273 44.41493 35933 ft 466 kts 332°
2026-05-01 14:54 35.13283 44.39048 35923 ft 466 kts 332°
2026-05-01 14:54 35.19305 44.36106 35913 ft 466 kts 332°
2026-05-01 14:55 35.25335 44.33155 35925 ft 466 kts 332°
2026-05-01 14:55 35.31348 44.30175 35918 ft 465 kts 331°
2026-05-01 14:56 35.37315 44.27094 35917 ft 465 kts 330°
2026-05-01 14:56 35.43268 44.24000 35924 ft 465 kts 330°
2026-05-01 14:57 35.49230 44.20912 35923 ft 465 kts 330°
2026-05-01 14:57 35.58142 44.16300 35916 ft 465 kts 330°
2026-05-01 14:58 35.64102 44.13209 35917 ft 465 kts 330°
2026-05-01 14:58 35.70066 44.10109 35927 ft 465 kts 330°
2026-05-01 14:59 35.76032 44.07004 35924 ft 465 kts 330°
2026-05-01 14:59 35.81990 44.03899 35935 ft 465 kts 330°
2026-05-01 15:00 35.90928 43.99250 35929 ft 465 kts 330°
2026-05-01 15:01 35.96860 43.96160 35935 ft 465 kts 330°
2026-05-01 15:01 36.02821 43.93048 35930 ft 465 kts 330°
2026-05-01 15:02 36.08780 43.89931 35944 ft 465 kts 330°
2026-05-01 15:02 36.14664 43.86849 35939 ft 465 kts 330°
2026-05-01 15:03 36.20618 43.83725 35952 ft 465 kts 330°
2026-05-01 15:03 36.26583 43.80590 35940 ft 465 kts 330°
2026-05-01 15:04 36.32511 43.77498 35939 ft 465 kts 331°
2026-05-01 15:04 36.38497 43.74408 35935 ft 466 kts 331°
2026-05-01 15:05 36.44483 43.71309 35937 ft 465 kts 331°
2026-05-01 15:05 36.50410 43.68229 35940 ft 466 kts 331°
2026-05-01 15:06 36.56352 43.65135 35949 ft 466 kts 331°
2026-05-01 15:06 36.62333 43.62016 35944 ft 466 kts 331°
2026-05-01 15:07 36.68314 43.58891 35964 ft 466 kts 331°
2026-05-01 15:07 36.74285 43.55767 35957 ft 465 kts 331°
2026-05-01 15:08 36.80211 43.52538 35968 ft 464 kts 329°
2026-05-01 15:08 36.86088 43.49227 35991 ft 464 kts 329°
2026-05-01 15:09 36.91980 43.45912 35978 ft 464 kts 330°
2026-05-01 15:09 36.97872 43.42610 36027 ft 464 kts 329°
2026-05-01 15:10 37.03763 43.39309 36012 ft 464 kts 329°
2026-05-01 15:10 37.12599 43.34346 36022 ft 464 kts 329°
2026-05-01 15:11 37.21392 43.29392 36036 ft 463 kts 329°
2026-05-01 15:12 37.27275 43.26071 36049 ft 463 kts 329°
2026-05-01 15:12 37.32964 43.22401 36048 ft 452 kts 316°
2026-05-01 15:12 37.35268 43.19784 36050 ft 444 kts 307°
2026-05-01 15:13 37.40058 43.10056 36061 ft 436 kts 293°
2026-05-01 15:14 37.42869 43.03278 36057 ft 439 kts 293°
2026-05-01 15:14 37.47174 42.93069 36040 ft 440 kts 294°
2026-05-01 15:15 37.52935 42.79445 36043 ft 442 kts 294°
2026-05-01 15:16 37.58671 42.65810 36041 ft 441 kts 294°
2026-05-01 15:18 37.65887 42.48704 36021 ft 442 kts 294°
2026-05-01 15:19 37.71632 42.35024 36014 ft 440 kts 294°
2026-05-01 15:19 37.75928 42.24752 36004 ft 441 kts 293°
2026-05-01 15:20 37.80224 42.14446 35993 ft 442 kts 293°
2026-05-01 15:21 37.83064 42.07612 35991 ft 441 kts 293°
2026-05-01 15:21 37.85914 42.00744 35990 ft 441 kts 293°
2026-05-01 15:22 37.90238 41.90429 35988 ft 444 kts 297°
2026-05-01 15:22 37.93889 41.84060 35979 ft 451 kts 306°
2026-05-01 15:23 37.98071 41.78110 35985 ft 452 kts 307°
2026-05-01 15:23 38.02263 41.72150 35997 ft 453 kts 307°
2026-05-01 15:24 38.06439 41.66157 35998 ft 453 kts 306°
2026-05-01 15:24 38.10603 41.60150 35999 ft 454 kts 306°
2026-05-01 15:25 38.14777 41.54111 35989 ft 454 kts 307°
2026-05-01 15:25 38.18920 41.48108 35989 ft 454 kts 307°
2026-05-01 15:26 38.23084 41.42062 36014 ft 454 kts 307°
2026-05-01 15:26 38.27241 41.36017 36006 ft 455 kts 307°
2026-05-01 15:27 38.31416 41.29934 35997 ft 456 kts 307°
2026-05-01 15:28 38.37660 41.20814 36009 ft 455 kts 307°
2026-05-01 15:28 38.41821 41.14720 36003 ft 455 kts 307°
2026-05-01 15:29 38.48042 41.05556 36009 ft 455 kts 306°
2026-05-01 15:30 38.56128 40.93177 36009 ft 455 kts 306°
2026-05-01 15:31 38.68341 40.74564 36042 ft 455 kts 306°
2026-05-01 15:32 38.76553 40.62150 36046 ft 458 kts 306°
2026-05-01 15:34 38.88857 40.43420 36048 ft 458 kts 306°